Torna al catalogo

CZ-4 DEB

AttivoSSO
NORAD 26199·DEBRIS·🇨🇳 China

Lanciato Oct 14, 1999 da Taiyuan Satellite Launch Center

Loading…

Prossimi Passaggi (prossime 24 ore)

TLE

AggiornatoSource: Space-Track

Epoca: Sep 14, 2026, 11:09 UTC

1 26199U 99057CM  26257.46496708  .00002514  00000-0  40995-3 0  9995
2 26199  98.3388 333.7671 0059676 326.6728  96.7271 14.70734952399190

Traccia CZ-4 DEB in tempo reale con AllMySat

Download on the App Store